[Iaude] MPEC Y113: 2019 YQ3 [a=1.39,e=0.27,i=2.6,H=26.4]

mpec at marsden.cfa.harvard.edu mpec at marsden.cfa.harvard.edu
Sun Dec 29 09:40:44 EST 2019


M.P.E.C. 2019-Y113                            Issued 2019 December 29, 14:39 UT

     The Minor Planet Electronic Circulars contain information on unusual
         minor planets and routine data on comets.  They are published
    on behalf of Division F of the International Astronomical Union by the
          Minor Planet Center, Smithsonian Astrophysical Observatory,
                          Cambridge, MA 02138, U.S.A.

             Prepared using the Tamkin Foundation Computer Network

                              MPC at CFA.HARVARD.EDU
            URL https://www.minorplanetcenter.net/    ISSN 1523-6714

                                    2019 YQ3                                    


Observations:
     K19Y03Q* C2019 12 28.39760504 35 56.455+11 16 32.15         21.69wUEY113F51
     K19Y03Q  C2019 12 28.40898704 35 58.106+11 15 54.81         21.80wUEY113F51
     K19Y03Q  C2019 12 28.42028404 35 59.733+11 15 18.27         21.71wUEY113F51
     K19Y03Q  C2019 12 28.43164904 36 01.418+11 14 40.41         21.49wUEY113F51
     K19Y03Q bC2019 12 28.76172804 37 16.61 +10 55 54.8          21.6 GVEY113L01
     K19Y03Q bC2019 12 28.77657004 37 19.21 +10 55 09.1          21.6 GVEY113L01
     K19Y03Q bC2019 12 28.78012904 37 19.82 +10 54 57.5          21.8 GVEY113L01
     K19Y03Q KC2019 12 28.78447904 37 20.56 +10 54 43.1          21.6 GVEY113L01
     K19Y03Q KC2019 12 28.78803404 37 21.07 +10 54 32.5          21.6 GVEY113L01
     K19Y03Q KC2019 12 28.87584 04 37 36.07 +10 49 47.7          21.5 GVEY113587
     K19Y03Q KC2019 12 28.87838 04 37 36.48 +10 49 40.2          21.3 GVEY113587
     K19Y03Q KC2019 12 28.88091 04 37 36.84 +10 49 31.4          21.6 GVEY113587
     K19Y03Q  C2019 12 29.02920 04 38 01.96 +10 41 10.5          20.5 VVEY113033
     K19Y03Q  C2019 12 29.03278 04 38 02.58 +10 40 57.6          20.2 VVEY113033

Observer details:
033 Karl Schwarzschild Observatory, Tautenburg.  Observers S. Melnikov, U. Laux,
    B. Stecklum.  Measurer B. Stecklum.  1.34-m f/3 Schmidt + CCD.
587 Sormano.  Observers P. Sicoli, A. Testa.  Measurer P. Sicoli.  0.5-m f/6.8 
   reflector + CCD.
F51 Pan-STARRS 1, Haleakala.  Observers J. Bulger, T. Lowe, A. Schultz, M. 
   Willman.  Measurers K. Chambers, S. Chastel, T. de Boer, L. Denneau, J. 
   Fairlamb, H. Flewelling, M. Huber, C.-C. Lin, E. Magnier, Y. Ramanjooloo, R. 
   Wainscoat, R. Weryk.  1.8-m Ritchey-Chretien + CCD.
L01 Visnjan Observatory, Tican.  Observer K. Korlevic.  1.0-m f/2.9 reflector + 
   CCD.

Orbital elements:
2019 YQ3                                                 Earth MOID = 0.0453 AU
Epoch 2020 May 31.0 TT = JDT 2459000.5                  Veres
M  79.62855              (2000.0)            P               Q
n   0.60032001     Peri.  218.01738     -0.46768296     -0.88279214
a   1.3917060      Node   259.90620     +0.82155321     -0.41571991
e   0.2665527      Incl.    2.57120     +0.32607204     -0.21875783
P   1.64           H   26.4           G   0.15           U   8
Residuals in seconds of arc
191228 F51  0.0   0.2+    191228 L01  0.4+  0.5+    191228 587  0.2+  0.5+
191228 F51  0.1+  0.1-    191228 L01  0.5+  0.3+    191228 587  0.6-  0.1-
191228 F51  0.1-  0.3+    191228 L01  0.5+  0.3-    191229 033  0.3+  0.4+
191228 F51  0.0   0.3-    191228 L01  0.8-  0.4+    191229 033  0.2-  0.5-
191228 L01  0.4-  0.8-    191228 587  0.2+  0.3-

Ephemeris:
2019 YQ3                 a,e,i = 1.39, 0.27, 3                   q = 1.0207
Date    TT    R. A. (2000) Decl.     Delta      r    Elong.  Phase     V
2019 11 29    03 56 45.7 +26 23 56   0.1244  1.1102   173.1     6.1    22.6
...
2019 12 14    04 05 37.2 +21 05 21   0.08711 1.0676   162.1    16.5    22.1
...
2019 12 22    04 18 38.5 +16 20 54   0.07195 1.0497   155.6    22.8    21.9
...
2019 12 28    04 34 40.5 +11 38 03   0.06263 1.0388   151.4    27.0    21.7
2019 12 29    04 38 00.4 +10 44 27   0.06125 1.0372   150.7    27.6    21.6
2019 12 30    04 41 32.9 +09 48 55   0.05993 1.0357   150.1    28.3    21.6
...
2020 01 05    05 07 33.2 +03 35 26   0.05315 1.0281   146.7    31.6    21.4
...
2020 01 13    05 55 38.5 -06 07 33   0.04771 1.0220   143.1    35.3    21.3
...
2020 01 28    07 50 49.8 -21 18 54   0.05084 1.0234   138.5    39.6    21.6

A. U. Tomatic                (C) Copyright 2019 MPC           M.P.E.C. 2019-Y113




More information about the Iaude mailing list